BREEZE-M R/B, 37603

Orbit data source: Space-Track

BREEZE-M R/B, 37603 is space debris in HEO originally from a launch on Fri, 20 May 2011 UTC launched from the Tyuratam Missile And Space Complex (TTMTR). Debris objects in space refer to the collection of defunct objects orbiting the Earth. Examples of debris include non-operational satellites, rocket bodies, and fragments generated from explosions, collisions, or faulty payload assembly.

Loading next visibility...
Identifier
37603, 2011-021B
Orbit
HEO
Country
Flag of CISCIS
Related business
Manufacturer
Khrunichev
Mission
Spacecraft
Bus & Motor
BRIZ, Unknown motor
Mass
~1,600 kg wet, 1,600 kg dry
Launch date (UTC)
2011-05-20 (15 years ago)
Launch vehicle
Unknown
Launch site
Tyuratam Missile And Space Complex (TTMTR)
Object type
Payload
Rocket body
Debris
Shape & HBR
Cyl, 2.0 m
Radar Cross Section
15.135 m², Large (>1 m²)

Expand to show TLE details & history
Last TLE update: 2 days ago

TLE from 2 days ago
0 BREEZE-M R/B
1 37603U 11021B   26171.20443372 -.00000103  00000-0  00000+0 0  9990
2 37603  14.9427 308.2705 4869896  37.4809 348.0835  1.92764575106121
Epoch: 2026-06-20T04:54Z
TLE epoch observation values (Epoch: 2026-06-20T04:54:23.073Z)
Latitude
0.00007°
Longitude
-33.7224°
Altitude
8,645.815 km
Speed
6.201 km/s
True Right ascension
20h 33m 11s
True Declination
0° 00' 00"
Sunlit
Object was in daylight at epoch
Visualization orbit readout
Latitude
Unknown
Longitude
Unknown
Altitude
Unknown
Speed
Unknown
Apparent Right ascension
Unknown
Apparent Declination
Unknown
Sunlit
N/A
Visualization observer readout
Local Sidereal Time
23:09:11
Azimuth
Unknown
Elevation
Unknown
Doppler factor
Unknown
Orbital elements
Apogee altitude
34,178.317 km
Perigee altitude
7,613.812 km
Semi-major axis
27,274.201 km
Eccentricity
0.48699
Inclination
14.9427°
RAAN
308.2705°
Arg. of periapsis
37.4809°
True anomaly
322.3106°
Mean anomaly
348.0835°
Eccentric anomaly
337.32865°
Mean motion
0.48185 °/min
Orbital period
747.11 mins
BSTAR
0
Loading maneuver chart data...
Computing Atmospheric mass density...
Loading historical data...
Loading historical data...
Loading historical data...
Loading historical data...
Loading historical data...
Loading historical data...
Loading historical data...
Other satellites on launch #21 in the year 2011 (2011-05-20 UTC)

Documentation

Showing up to 5 results
|